1536912000.8,22972,20.63,74328.8,12.39,9.15,9.21,0,*4F
1536912002.01,22973,20.56,74324.3,12.39,9.11,9.21,0,*4A
1536912003.21,22974,20.56,74326.8,12.39,9.25,9.35,0,*4F
1536912004.42,22975,20.56,74326.5,12.43,9.19,9.29,0,*41
1536912005.67,22976,20.56,74328.8,12.41,8.97,9.15,0,*48
1536912006.88,22977,20.56,74330.5,12.43,9.19,9.21,0,*4B
1536912008.14,22978,20.56,74330.0,12.41,8.97,9.15,0,*46
1536912009.32,22979,20.63,74328.0,12.43,9.07,9.21,0,*4A
1536912010.51,22980,20.56,74324.0,12.43,9.07,9.21,0,*4C
1536912011.72,22981,20.56,74326.8,12.43,9.19,9.33,0,*41
1536912012.96,22982,20.56,74326.3,12.45,9.07,9.19,0,*43
1536912014.19,22983,20.56,74328.5,12.49,9.11,9.21,0,*42
1536912015.4,22984,20.56,74328.8,12.49,9.21,9.33,0,*45
1536912016.66,22985,20.63,74328.5,12.49,9.11,9.15,0,*43
1536912017.89,22986,20.56,74326.3,12.49,9.15,9.21,0,*43
1536912019.15,22987,20.56,74324.0,12.49,9.01,9.15,0,*40
1536912020.39,22988,20.56,74326.5,12.49,9.03,9.15,0,*4D
1536912021.62,22989,20.56,74326.3,12.51,9.01,9.15,0,*47
1536912022.85,22990,20.56,74326.3,12.51,9.19,9.35,0,*44
1536912024.06,22991,20.56,74326.0,12.53,9.07,9.25,0,*49
1536912025.27,22992,20.56,74330.0,12.53,9.07,9.25,0,*4A
1536912026.53,22993,20.63,74330.3,12.53,8.71,9.01,0,*4D
1536912027.76,22994,20.56,74326.8,12.53,8.51,8.61,0,*4F
1536912028.95,22995,20.56,74328.0,12.53,8.61,8.79,0,*44
1536912030.18,22996,20.56,74330.0,12.53,8.71,8.83,0,*43
1536912031.41,22997,20.56,74328.0,12.53,8.47,8.69,0,*43
1536912032.61,22998,20.56,74328.0,12.53,8.69,8.79,0,*41
1536912033.81,22999,20.56,74328.0,12.53,8.69,8.83,0,*45
1536912035.04,23000,20.56,74328.8,12.53,8.69,8.89,0,*47
1536912036.25,23001,20.56,74328.5,12.53,9.03,9.25,0,*4C
1536912037.48,23002,20.56,74328.5,12.51,9.19,9.39,0,*4B
1536912038.74,23003,20.56,74326.3,12.53,9.35,9.53,0,*4A
1536912039.95,23004,20.56,74326.3,12.55,9.33,9.49,0,*46
1536912041.15,23005,20.56,74326.8,12.57,9.21,9.33,0,*4B
1536912042.39,23006,20.63,74328.8,12.57,9.33,9.53,0,*4D
1536912043.62,23007,20.63,74328.8,12.59,8.75,8.89,0,*47
1536912044.86,23008,20.56,74326.0,12.57,8.55,8.83,0,*4E
1536912046.12,23009,20.63,74328.0,12.57,8.75,8.97,0,*48
1536912047.33,23010,20.63,74328.0,12.57,9.07,9.29,0,*40
1536912048.54,23011,20.56,74324.0,12.57,9.03,9.21,0,*4D
1536912049.72,23012,20.56,74324.3,12.59,9.07,9.33,0,*47
1536912050.96,23013,20.63,74328.0,12.61,9.15,9.35,0,*48
1536912052.2,23014,20.56,74326.3,12.61,9.39,9.49,0,*4A
1536912053.41,23015,20.56,74326.8,12.61,9.35,9.67,0,*4B
1536912054.64,23016,20.56,74324.3,12.61,9.15,9.35,0,*4D
1536912055.85,23017,20.56,74324.5,12.61,9.11,9.29,0,*45
1536912057.07,23018,20.56,74326.5,12.65,9.43,9.53,0,*44
1536912058.29,23019,20.56,74326.8,12.63,9.71,9.91,0,*4C
1536912059.51,23020,20.63,74330.3,12.65,9.19,9.43,0,*41
1536912060.72,23021,20.63,74330.5,12.65,9.43,9.61,0,*4F
1536912061.96,23022,20.56,74326.5,12.65,9.53,9.85,0,*47
1536912063.23,23023,20.56,74328.3,12.67,9.89,10.19,0,*7E
1536912064.45,23024,20.63,74328.8,12.69,10.03,10.23,0,*44
1536912065.66,23025,20.56,74328.5,12.73,10.13,10.33,0,*4E
1536912066.92,23026,20.56,74328.3,12.75,10.41,10.71,0,*4A
1536912068.14,23027,20.56,74328.0,12.77,10.17,10.41,0,*49
1536912069.38,23028,20.63,74330.5,12.79,10.09,10.41,0,*47
1536912070.62,23029,20.56,74328.0,12.79,9.95,10.23,0,*7F
1536912071.87,23030,20.63,74326.3,12.83,9.81,10.13,0,*74
1536912073.11,23031,20.56,74328.0,12.83,9.89,10.17,0,*79
1536912074.35,23032,20.56,74326.0,12.83,9.81,10.13,0,*76
1536912075.57,23033,20.56,74326.5,12.85,10.19,10.51,0,*4E
1536912076.77,23034,20.56,74326.3,12.87,10.43,10.85,0,*4D
1536912078.0,23035,20.56,74324.8,12.89,10.31,10.55,0,*4A
1536912079.24,23036,20.56,74324.5,12.91,10.33,10.65,0,*41
1536912080.46,23037,20.63,74328.5,12.91,10.85,11.09,0,*46
1536912081.67,23038,20.63,74328.5,12.95,10.61,10.89,0,*4E
1536912082.92,23039,20.63,74330.3,12.99,11.07,11.27,0,*47
1536912084.13,23040,20.56,74324.3,13.01,10.85,11.17,0,*41
1536912085.36,23041,20.56,74326.8,13.03,11.13,11.45,0,*4B
1536912086.59,23042,20.56,74324.0,13.03,11.23,11.55,0,*4A
1536912087.85,23043,20.56,74326.5,13.09,11.75,11.95,0,*4E
1536912089.07,23044,20.56,74326.8,13.11,11.95,12.27,0,*44
1536912090.28,23045,20.56,74326.3,13.19,12.05,12.47,0,*41
1536912091.53,23046,20.56,74326.8,13.19,12.05,12.37,0,*45
1536912092.75,23047,20.56,74328.3,13.25,11.99,12.29,0,*42
1536912093.98,23048,20.56,74324.8,13.27,12.03,12.29,0,*4F
1536912095.21,23049,20.56,74326.0,13.31,12.51,12.81,0,*4C
1536912096.43,23050,20.56,74326.0,13.35,12.39,12.73,0,*43
1536912097.65,23051,20.56,74324.0,13.37,11.99,12.33,0,*4D
1536912098.89,23052,20.56,74326.3,13.43,11.81,12.09,0,*4D
1536912100.16,23053,20.63,74324.5,13.47,12.05,12.29,0,*45
1536912101.37,23054,20.56,74324.0,13.49,12.23,12.53,0,*45
1536912102.59,23055,20.63,74328.5,13.53,12.27,12.57,0,*4F
1536912103.85,23056,20.56,74322.3,13.55,12.05,12.29,0,*43
1536912105.12,23057,20.56,74326.3,13.57,11.95,12.29,0,*4A
1536912106.34,23058,20.56,74324.8,13.63,12.17,12.39,0,*4A
1536912107.62,23059,20.56,74326.3,13.65,11.95,12.37,0,*4A
1536912108.86,23060,20.56,74324.3,13.69,11.89,12.29,0,*4E
1536912110.09,23061,20.56,74326.0,13.71,12.09,12.43,0,*41
1536912111.33,23062,20.56,74326.3,13.73,12.13,12.39,0,*46
1536912112.55,23063,20.56,74326.0,13.79,11.75,11.93,0,*4D
1536912113.82,23064,20.56,74326.0,13.77,11.03,11.31,0,*4D
1536912115.03,23065,20.63,74328.0,13.79,10.89,11.23,0,*42
1536912116.23,23066,20.63,74324.3,13.79,11.13,11.55,0,*42
1536912117.5,23067,20.56,74324.5,13.81,10.99,11.37,0,*43
1536912118.75,23068,20.56,74326.0,13.85,11.21,11.61,0,*49
1536912120.0,23069,20.56,74324.8,13.85,11.21,11.57,0,*4D
1536912121.22,23070,20.56,74326.8,13.89,10.93,11.33,0,*43
1536912122.46,23071,20.56,74326.3,13.89,11.23,11.75,0,*4A
1536912123.73,23072,20.56,74324.8,13.91,11.33,11.75,0,*41
1536912125.0,23073,20.56,74320.5,13.91,11.33,11.75,0,*40
1536912126.21,23074,20.56,74324.5,13.93,11.47,12.03,0,*44
1536912127.46,23075,20.56,74322.8,13.93,12.05,12.53,0,*45
1536912128.67,23076,20.56,74322.0,13.97,11.75,12.27,0,*45
1536912129.94,23077,20.56,74320.8,13.99,11.27,11.79,0,*45
1536912131.13,23078,20.56,74322.5,14.01,11.09,11.65,0,*4D
1536912132.35,23079,20.63,74326.5,14.01,10.93,11.45,0,*4C
1536912133.56,23080,20.56,74324.8,14.05,10.95,11.51,0,*4D
1536912134.75,23081,20.56,74320.5,14.05,10.69,11.17,0,*4D
1536912135.97,23082,20.56,74320.5,14.05,10.51,10.99,0,*42
1536912137.18,23083,20.56,74322.3,14.05,10.85,11.41,0,*4E
1536912138.43,23084,20.63,74326.5,14.05,11.33,11.95,0,*4C
1536912139.67,23085,20.63,74324.5,14.11,11.37,11.99,0,*40
1536912140.91,23086,20.56,74324.0,14.11,11.13,11.75,0,*47
1536912142.16,23087,20.56,74322.8,14.15,11.47,12.09,0,*4B
1536912143.38,23088,20.56,74324.3,14.19,11.21,11.99,0,*42
1536912144.62,23089,20.56,74322.5,14.19,11.85,12.63,0,*4B
1536912145.84,23090,20.56,74324.0,14.23,12.19,13.01,0,*49
1536912147.08,23091,20.56,74324.0,14.25,12.87,13.75,0,*4A
1536912148.36,23092,20.56,74326.8,14.33,13.51,14.45,0,*40
1536912149.63,23093,20.56,74326.0,14.37,13.21,14.25,0,*44
1536912150.87,23094,20.56,74326.0,14.43,13.69,14.59,0,*47
1536912152.11,23095,20.56,74324.0,14.45,13.81,14.69,0,*45
1536912153.35,23096,20.56,74326.0,14.55,13.81,14.65,0,*4B
1536912154.57,23097,20.56,74326.8,14.59,13.45,14.31,0,*4F
1536912155.81,23098,20.56,74324.3,14.65,13.61,14.29,0,*40
1536912157.04,23099,20.56,74324.0,14.67,13.01,13.75,0,*4B
1536912158.31,23100,20.56,74322.0,14.71,13.01,13.69,0,*40
1536912159.55,23101,20.56,74324.5,14.75,13.17,13.89,0,*4C
1536912160.79,23102,20.63,74326.5,14.79,13.01,13.59,0,*49
1536912162.01,23103,20.56,74324.5,14.85,12.53,13.07,0,*46
1536912163.24,23104,20.56,74322.3,14.85,12.43,13.05,0,*42
1536912164.42,23105,20.63,74324.8,14.89,12.47,13.11,0,*4E
1536912165.69,23106,20.63,74326.8,14.91,12.33,12.97,0,*48
1536912166.91,23107,20.56,74324.3,14.93,11.95,12.61,0,*4D
1536912168.15,23108,20.56,74324.8,14.93,11.95,12.71,0,*43
1536912169.4,23109,20.63,74324.5,14.99,12.23,12.91,0,*48
1536912170.64,23110,20.63,74326.0,14.99,12.05,12.77,0,*4C
1536912171.89,23111,20.56,74326.3,15.03,11.51,11.95,0,*42
1536912173.17,23112,20.63,74326.5,15.03,11.41,11.79,0,*42
1536912174.41,23113,20.56,74326.3,15.05,11.33,11.67,0,*4F
1536912175.65,23114,20.63,74326.3,15.07,10.79,11.09,0,*4D
1536912176.9,23115,20.63,74328.0,15.07,11.17,11.45,0,*4D
1536912178.14,23116,20.56,74324.5,15.07,11.33,11.65,0,*4A
1536912179.38,23117,20.56,74324.3,15.07,11.33,11.65,0,*4B
1536912180.63,23118,20.63,74324.5,15.11,11.23,11.55,0,*41
1536912181.87,23119,20.56,74326.5,15.11,11.23,11.55,0,*40
1536912183.12,23120,20.56,74326.0,15.15,11.37,11.65,0,*48
1536912184.36,23121,20.56,74324.0,15.15,11.17,11.45,0,*49
1536912185.6,23122,20.56,74326.3,15.15,11.27,11.55,0,*48
1536912186.85,23123,20.56,74324.5,15.15,11.17,11.45,0,*4B
1536912188.12,23124,20.63,74326.8,15.21,11.07,11.27,0,*4E
1536912189.34,23125,20.56,74324.8,15.17,10.93,11.17,0,*45
1536912190.6,23126,20.56,74326.3,15.17,10.83,11.07,0,*46
1536912191.82,23127,20.56,74326.3,15.21,10.93,11.21,0,*47
1536912193.04,23128,20.63,74328.5,15.23,10.85,10.99,0,*4F
1536912194.26,23129,20.63,74326.3,15.23,10.55,10.75,0,*41
1536912195.5,23130,20.56,74324.3,15.25,10.47,10.65,0,*4D
1536912196.74,23131,20.63,74328.0,15.25,10.41,10.55,0,*49
1536912197.95,23132,20.63,74328.3,15.23,10.41,10.43,0,*4B
1536912199.22,23133,20.63,74328.0,15.25,10.19,10.31,0,*44
1536912200.46,23134,20.63,74326.0,15.25,10.65,10.69,0,*45
1536912201.71,23135,20.56,74326.3,15.25,10.65,10.47,0,*48
1536912202.93,23136,20.63,74328.0,15.25,10.13,10.03,0,*4A
1536912204.19,23137,20.63,74326.0,15.25,10.57,10.65,0,*4B
1536912205.46,23138,20.63,74326.3,15.25,10.99,11.07,0,*43
1536912206.7,23139,20.63,74324.5,15.25,11.07,11.17,0,*45
1536912207.92,23140,20.56,74326.0,15.27,11.03,11.09,0,*42
1536912209.15,23141,20.56,74328.0,15.29,11.47,11.47,0,*47
1536912210.39,23142,20.63,74326.3,15.29,11.57,11.51,0,*42
1536912211.66,23143,20.56,74326.8,15.33,10.95,10.99,0,*42
1536912212.88,23144,20.63,74328.3,15.31,11.33,11.51,0,*4F
1536912214.11,23145,20.63,74326.3,15.33,10.89,11.07,0,*4F
1536912215.35,23146,20.63,74328.5,15.33,10.65,10.89,0,*49
1536912216.59,23147,20.63,74326.0,15.33,11.21,11.45,0,*48
1536912217.84,23148,20.56,74326.3,15.33,11.61,11.85,0,*4F
1536912219.06,23149,20.56,74326.8,15.35,11.47,11.75,0,*43
1536912220.27,23150,20.56,74324.3,15.37,11.55,11.85,0,*45
1536912221.54,23151,20.56,74324.0,15.37,11.75,12.09,0,*41
1536912222.75,23152,20.63,74326.3,15.39,12.13,12.43,0,*41
1536912223.97,23153,20.63,74324.8,15.43,12.17,12.61,0,*49
1536912225.19,23154,20.56,74324.5,15.43,12.27,12.71,0,*4C
1536912226.41,23155,20.56,74324.5,15.47,12.23,12.63,0,*4E
1536912227.66,23156,20.56,74322.8,15.51,12.43,12.87,0,*46
1536912228.88,23157,20.56,74326.3,15.51,11.89,12.27,0,*48
1536912230.08,23158,20.56,74324.3,15.53,11.85,12.27,0,*49
1536912231.29,23159,20.63,74324.3,15.53,11.61,11.93,0,*4E
1536912232.5,23160,20.63,74324.0,15.55,11.65,11.89,0,*4D
1536912233.77,23161,20.63,74328.0,15.55,11.75,12.05,0,*4A
1536912235.02,23162,20.56,74324.3,15.55,11.57,11.85,0,*42
1536912236.24,23163,20.63,74326.8,15.57,11.55,11.95,0,*42
1536912237.48,23164,20.56,74324.5,15.59,11.45,11.81,0,*4F
1536912238.7,23165,20.63,74330.0,15.59,11.55,11.81,0,*4F
1536912239.94,23166,20.56,74324.3,15.59,11.67,11.99,0,*44
1536912241.15,23167,20.63,74326.5,15.63,11.65,11.93,0,*44
1536912242.36,23168,20.63,74326.3,15.63,11.51,11.81,0,*4F
1536912243.61,23169,20.56,74324.3,15.63,11.41,11.65,0,*45
1536912244.83,23170,20.63,74326.0,15.69,11.37,11.55,0,*45
1536912246.1,23171,20.63,74324.3,15.67,11.23,11.41,0,*4A
1536912247.32,23172,20.56,74324.3,15.67,11.09,11.21,0,*47
1536912248.59,23173,20.63,74324.3,15.67,11.03,11.23,0,*4E
1536912249.78,23174,20.63,74326.0,15.69,11.13,11.17,0,*41
1536912251.0,23175,20.63,74326.0,15.69,11.17,11.23,0,*43
1536912252.24,23176,20.63,74326.0,15.69,11.03,11.03,0,*47
1536912253.5,23177,20.63,74326.0,15.71,11.03,11.07,0,*4B
1536912254.77,23178,20.63,74324.5,15.71,11.07,11.07,0,*40
1536912256.01,23179,20.63,74324.5,15.73,11.07,11.07,0,*43
1536912257.26,23180,20.63,74328.5,15.71,11.13,11.07,0,*42
1536912258.48,23181,20.63,74328.3,15.73,11.31,11.21,0,*45
1536912259.7,23182,20.63,74326.5,15.73,11.47,11.37,0,*40
1536912260.91,23183,20.63,74324.0,15.77,11.55,11.33,0,*42
1536912262.13,23184,20.63,74328.8,15.75,11.21,11.09,0,*4D
1536912263.36,23185,20.63,74330.3,15.77,11.27,11.07,0,*46
1536912264.6,23186,20.63,74326.8,15.77,11.23,10.99,0,*47
1536912265.87,23187,20.63,74326.0,15.81,11.57,11.37,0,*49
1536912267.14,23188,20.63,74330.8,15.81,10.71,10.31,0,*44
1536912268.39,23189,20.63,74330.0,15.81,11.37,11.21,0,*46
1536912269.63,23190,20.63,74328.0,15.83,11.07,10.75,0,*4F
1536912270.85,23191,20.63,74330.0,15.83,11.47,11.41,0,*4C
1536912272.11,23192,20.63,74328.8,15.85,11.75,11.71,0,*4B
1536912273.38,23193,20.63,74326.8,15.85,11.07,11.07,0,*4E
1536912274.61,23194,20.63,74326.0,15.85,11.81,11.75,0,*42
1536912275.81,23195,20.56,74324.0,15.89,11.89,11.89,0,*44
1536912277.05,23196,20.56,74326.3,15.91,12.37,12.37,0,*4E
1536912278.28,23197,20.63,74324.5,15.93,12.37,12.47,0,*4A
1536912279.5,23198,20.63,74328.5,15.97,12.51,12.61,0,*45
1536912280.72,23199,20.63,74324.8,15.99,12.67,12.73,0,*4C
1536912281.94,23200,20.63,74326.3,16.03,12.43,12.53,0,*4B
1536912283.17,23201,20.63,74330.3,16.03,12.13,12.13,0,*4B
1536912284.37,23202,20.63,74328.0,16.07,11.75,11.85,0,*43
1536912285.57,23203,20.63,74328.5,16.11,11.71,11.89,0,*4D
1536912286.79,23204,20.63,74326.8,16.11,11.61,11.81,0,*43
1536912288.0,23205,20.63,74326.5,16.11,11.27,11.51,0,*4D
1536912289.24,23206,20.63,74330.0,16.17,11.71,11.93,0,*45
1536912290.48,23207,20.63,74330.0,16.17,11.93,12.13,0,*43
1536912291.73,23208,20.63,74328.0,16.19,11.45,11.75,0,*4A
1536912292.96,23209,20.63,74328.3,16.19,10.93,11.27,0,*46
1536912294.23,23210,20.63,74326.5,16.21,10.61,11.03,0,*4E
1536912295.47,23211,20.63,74326.3,16.21,10.03,10.41,0,*4C
1536912296.69,23212,20.63,74328.0,16.21,10.09,10.51,0,*44
1536912297.95,23213,20.63,74328.8,16.23,9.77,10.19,0,*7A
1536912299.18,23214,20.63,74330.5,16.21,9.61,9.95,0,*44
1536912300.37,23215,20.63,74326.8,16.23,9.67,10.05,0,*70
1536912301.64,23216,20.63,74324.3,16.21,10.19,10.57,0,*47
1536912302.91,23217,20.63,74326.8,16.21,10.61,11.07,0,*4D
1536912304.13,23218,20.63,74330.0,16.23,10.55,10.99,0,*41
1536912305.4,23219,20.63,74328.3,16.29,10.23,10.57,0,*49
1536912306.65,23220,20.63,74330.0,16.29,10.47,10.79,0,*4D
1536912307.9,23221,20.63,74326.3,16.29,10.75,11.09,0,*4B
1536912309.13,23222,20.63,74330.0,16.31,10.69,11.03,0,*46
1536912310.4,23223,20.63,74328.3,16.33,10.41,10.71,0,*4B
1536912311.65,23224,20.63,74328.8,16.37,10.47,10.79,0,*46
1536912312.89,23225,20.63,74330.0,16.37,10.85,11.41,0,*43
1536912314.16,23226,20.63,74330.3,16.37,10.37,10.95,0,*41
1536912315.4,23227,20.63,74328.0,16.39,10.27,11.03,0,*41
1536912316.67,23228,20.63,74328.5,16.41,10.71,11.57,0,*43
1536912317.94,23229,20.63,74328.0,16.41,10.83,11.79,0,*43
1536912319.17,23230,20.63,74330.8,16.43,11.03,12.03,0,*4E
1536912320.36,23231,20.63,74326.5,16.45,11.17,12.23,0,*4E
1536912321.62,23232,20.63,74328.8,16.47,11.51,12.63,0,*49
1536912322.86,23233,20.63,74326.3,16.49,11.23,12.29,0,*4D
1536912324.1,23234,20.63,74330.3,16.53,11.67,12.57,0,*48
1536912325.35,23235,20.63,74328.8,16.53,11.79,12.71,0,*42
1536912326.57,23236,20.63,74330.8,16.53,11.51,12.33,0,*4D
1536912327.82,23237,20.63,74332.3,16.55,11.27,12.03,0,*48
1536912329.06,23238,20.63,74330.0,16.59,11.71,12.47,0,*48
1536912330.28,23239,20.63,74326.3,16.61,11.45,12.23,0,*47
1536912331.5,23240,20.63,74328.0,16.63,11.55,12.23,0,*4A
1536912332.77,23241,20.63,74330.3,16.63,10.83,11.45,0,*42
1536912334.02,23242,20.63,74328.3,16.63,11.37,11.99,0,*4E
1536912335.27,23243,20.63,74326.8,16.63,11.37,11.99,0,*4F
1536912336.49,23244,20.63,74330.0,16.67,11.21,11.85,0,*46
1536912337.73,23245,20.63,74328.3,16.65,11.07,11.57,0,*4E
1536912338.95,23246,20.63,74326.8,16.67,11.17,11.55,0,*4C
1536912340.17,23247,20.63,74324.8,16.65,11.17,11.61,0,*48
1536912341.39,23248,20.63,74328.3,16.65,10.85,11.23,0,*4B
1536912342.63,23249,20.63,74324.3,16.65,10.61,11.03,0,*42
1536912343.83,23250,20.63,74324.8,16.65,10.85,11.13,0,*41
1536912345.08,23251,20.63,74328.8,16.63,10.79,11.13,0,*45
1536912346.34,23252,20.63,74330.0,16.63,10.57,10.83,0,*42
1536912347.58,23253,20.63,74328.8,16.63,10.47,10.79,0,*47
1536912348.8,23254,20.63,74326.0,16.61,10.61,10.93,0,*42
1536912350.01,23255,20.63,74324.8,16.61,10.93,11.27,0,*40
1536912351.22,23256,20.63,74324.8,16.61,10.43,10.61,0,*4D
1536912352.47,23257,20.63,74326.3,16.59,10.23,10.55,0,*46
1536912353.72,23258,20.63,74328.0,16.59,10.43,10.75,0,*4D
1536912354.98,23259,20.63,74328.5,16.55,10.37,10.61,0,*46
1536912356.23,23260,20.63,74326.0,16.55,10.31,10.55,0,*4D
1536912357.49,23261,20.63,74326.3,16.51,9.85,10.05,0,*7A
1536912358.72,23262,20.63,74326.0,16.51,9.75,10.13,0,*71
1536912359.99,23263,20.63,74330.0,16.51,10.41,10.79,0,*43
1536912361.22,23264,20.63,74324.8,16.49,9.81,10.05,0,*72
1536912362.44,23265,20.63,74324.3,16.49,9.91,10.23,0,*76
1536912363.69,23266,20.63,74324.3,16.49,9.49,9.81,0,*40
1536912364.9,23267,20.63,74326.8,16.43,9.07,9.35,0,*4E
1536912366.1,23268,20.63,74324.8,16.43,9.03,9.25,0,*44
1536912367.36,23269,20.63,74324.3,16.41,9.57,9.85,0,*4C
1536912368.6,23270,20.63,74324.8,16.37,9.91,10.19,0,*72
1536912369.85,23271,20.63,74328.3,16.33,9.95,10.19,0,*73
1536912371.07,23272,20.63,74328.8,16.33,9.95,10.09,0,*71
1536912372.32,23273,20.63,74330.3,16.37,9.81,10.05,0,*7D
1536912373.59,23274,20.63,74326.5,16.33,8.97,9.19,0,*4D
1536912374.8,23275,20.63,74324.0,16.29,8.83,9.03,0,*49
1536912376.01,23276,20.63,74326.8,16.29,8.65,8.83,0,*4B
1536912377.25,23277,20.63,74324.0,16.23,9.11,9.39,0,*42
1536912378.51,23278,20.63,74328.0,16.21,9.53,9.81,0,*4A
1536912379.75,23279,20.63,74326.0,16.23,9.57,9.77,0,*44
1536912380.99,23280,20.63,74328.0,16.21,9.07,9.35,0,*43
1536912382.23,23281,20.63,74324.5,16.21,9.81,9.91,0,*42
1536912383.42,23282,20.63,74326.8,16.19,9.33,9.47,0,*48
1536912384.65,23283,20.63,74328.3,16.17,8.65,8.75,0,*45
1536912385.86,23284,20.63,74324.8,16.15,8.69,8.97,0,*40
1536912387.06,23285,20.63,74324.3,16.11,9.29,9.53,0,*49
1536912388.29,23286,20.63,74326.3,16.11,8.97,9.19,0,*40
1536912389.52,23287,20.63,74326.0,16.13,9.29,9.39,0,*45
1536912390.73,23288,20.63,74324.8,16.11,9.43,9.61,0,*49
1536912391.9,23289,20.63,74324.3,16.11,9.29,9.43,0,*44
1536912393.13,23290,20.63,74326.5,16.07,9.39,9.61,0,*4A
1536912394.31,23291,20.63,74324.0,16.07,9.33,9.43,0,*41
1536912395.53,23292,20.63,74328.0,16.03,8.97,9.15,0,*4A
1536912396.76,23293,20.63,74326.8,16.05,8.79,9.01,0,*48
1536912397.99,23294,20.63,74324.8,16.03,8.71,8.93,0,*4B
1536912399.21,23295,20.63,74330.0,16.01,8.93,9.21,0,*4C
1536912400.44,23296,20.63,74326.0,16.01,8.55,8.83,0,*4C
1536912401.67,23297,20.63,74326.0,15.99,8.47,8.59,0,*4B
1536912402.87,23298,20.63,74326.3,15.97,8.65,8.87,0,*49
1536912404.07,23299,20.63,74324.5,15.95,9.33,9.35,0,*40
1536912405.28,23300,20.63,74320.8,15.93,8.65,8.75,0,*40
1536912406.49,23301,20.63,74326.3,15.91,7.47,7.59,0,*4D
1536912407.71,23302,20.63,74326.0,15.89,7.79,7.83,0,*4D
1536912408.94,23303,20.63,74322.8,15.89,7.95,8.23,0,*4B
1536912410.15,23304,20.63,74324.3,15.83,8.55,8.83,0,*4F
1536912411.36,23305,20.63,74324.8,15.85,8.79,9.03,0,*4F
1536912412.56,23306,20.63,74322.0,15.83,8.65,9.01,0,*45
1536912413.79,23307,20.63,74324.8,15.85,8.89,9.25,0,*46
1536912414.98,23308,20.63,74324.5,15.83,8.65,8.97,0,*45
1536912416.21,23309,20.63,74326.3,15.81,8.33,8.65,0,*48
1536912417.45,23310,20.63,74324.3,15.81,8.97,9.39,0,*46
1536912418.66,23311,20.63,74326.5,15.83,9.21,9.53,0,*45
1536912419.86,23312,20.63,74324.3,15.83,8.33,8.65,0,*40
1536912421.06,23313,20.63,74326.5,15.83,8.61,8.93,0,*4F
1536912422.26,23314,20.63,74324.0,15.83,8.41,8.65,0,*43
1536912423.51,23315,20.63,74322.5,15.81,8.29,8.51,0,*49
1536912424.77,23316,20.63,74322.3,15.79,8.37,8.59,0,*4A
1536912425.97,23317,20.63,74322.3,15.79,8.01,8.23,0,*43
1536912427.14,23318,20.63,74320.8,15.77,8.05,8.27,0,*42
1536912428.37,23319,20.63,74322.0,15.79,7.91,8.23,0,*4B
1536912429.56,23320,20.63,74326.8,15.77,7.51,7.91,0,*45
1536912430.78,23321,20.63,74324.5,15.77,7.83,8.29,0,*47
1536912431.98,23322,20.63,74326.3,15.77,8.01,8.59,0,*46
1536912433.15,23323,20.63,74322.3,15.77,7.33,8.01,0,*44
1536912434.38,23324,20.63,74324.5,15.77,7.27,7.95,0,*44
1536912435.59,23325,20.63,74326.5,15.77,7.95,8.61,0,*48
1536912436.79,23326,20.63,74326.8,15.77,8.13,8.79,0,*43
1536912438.02,23327,20.63,74324.5,15.79,7.95,8.69,0,*4C
1536912439.22,23328,20.63,74326.3,15.81,7.37,8.19,0,*4B
1536912440.46,23329,20.63,74328.8,15.81,7.83,8.75,0,*4F
1536912441.67,23330,20.63,74324.3,15.81,7.29,8.27,0,*40
1536912442.9,23331,20.63,74328.3,15.81,7.87,8.83,0,*4B
1536912444.16,23332,20.63,74328.0,15.81,8.51,9.49,0,*4B
1536912445.41,23333,20.63,74324.8,15.85,8.97,9.89,0,*48
1536912446.65,23334,20.63,74326.5,15.89,8.33,9.39,0,*46
1536912447.86,23335,20.63,74330.3,15.91,8.19,9.19,0,*44
1536912449.03,23336,20.63,74328.3,15.91,7.59,8.65,0,*46
1536912450.23,23337,20.63,74326.5,15.93,7.51,8.61,0,*49
1536912451.48,23338,20.63,74328.0,15.93,7.27,8.29,0,*4B
1536912452.7,23339,20.63,74326.0,15.93,7.77,8.87,0,*4B
1536912453.88,23340,20.63,74326.5,15.95,8.23,9.43,0,*44
1536912455.1,23341,20.63,74332.3,15.97,8.29,9.33,0,*4A
1536912456.28,23342,20.63,74328.0,15.99,8.69,9.71,0,*45
1536912457.51,23343,20.63,74328.8,16.03,8.47,9.49,0,*43
1536912458.7,23344,20.63,74330.5,16.03,7.97,8.97,0,*44
1536912459.9,23345,20.63,74328.8,16.07,8.05,8.93,0,*41
1536912461.1,23346,20.63,74328.8,16.07,7.83,8.83,0,*42
1536912462.3,23347,20.63,74328.3,16.07,8.05,8.93,0,*43
1536912463.49,23348,20.63,74328.0,16.07,8.05,8.89,0,*47
1536912464.71,23349,20.63,74328.8,16.13,8.15,8.83,0,*48
1536912465.96,23350,20.63,74330.5,16.13,7.95,8.61,0,*4B
1536912467.17,23351,20.63,74330.0,16.13,8.09,8.87,0,*48
1536912468.39,23352,20.63,74330.8,16.13,8.27,8.83,0,*43
1536912469.63,23353,20.63,74328.3,16.13,7.69,8.27,0,*49
1536912470.83,23354,20.63,74328.5,16.15,7.05,7.29,0,*43
1536912472.09,23355,20.63,74328.3,16.13,7.11,7.27,0,*4F
1536912473.34,23356,20.63,74328.3,16.13,6.69,6.69,0,*49
1536912474.6,23357,20.63,74328.8,16.13,6.91,6.73,0,*44
1536912475.83,23358,20.63,74332.5,16.13,7.01,6.69,0,*48
1536912477.05,23359,20.63,74330.3,16.13,7.01,6.57,0,*44
1536912478.26,23360,20.63,74328.8,16.13,7.41,6.83,0,*43
1536912479.43,23361,20.63,74332.3,16.11,7.59,6.79,0,*4C
1536912480.67,23362,20.63,74334.0,16.13,7.29,6.39,0,*4E
1536912481.91,23363,20.63,74332.3,16.13,7.27,6.33,0,*4B
1536912483.14,23364,20.63,74334.5,16.11,7.19,6.47,0,*40
1536912484.35,23365,20.63,74330.5,16.11,7.05,6.39,0,*45
1536912485.57,23366,20.63,74330.5,16.11,6.73,6.13,0,*4E
1536912486.77,23367,20.63,74330.5,16.11,7.37,6.73,0,*48
1536912487.97,23368,20.63,74328.3,16.11,7.79,7.19,0,*40
1536912489.17,23369,20.63,74330.5,16.11,7.29,6.73,0,*49
1536912490.39,23370,20.63,74330.8,16.07,7.27,6.57,0,*4E
1536912491.61,23371,20.63,74330.0,16.07,7.27,6.53,0,*4B
1536912492.86,23372,20.63,74328.8,16.05,7.65,6.87,0,*45
1536912494.08,23373,20.63,74330.8,16.05,8.29,7.41,0,*48
1536912495.31,23374,20.63,74334.0,16.07,7.95,7.11,0,*40
1536912496.51,23375,20.63,74330.8,16.05,7.79,6.83,0,*4B
1536912497.73,23376,20.63,74324.8,16.05,7.87,6.93,0,*48
1536912498.92,23377,20.63,74328.5,16.05,8.09,7.05,0,*4E
1536912500.12,23378,20.63,74328.0,16.03,8.41,7.37,0,*4A
1536912501.3,23379,20.63,74328.5,16.03,8.27,7.09,0,*46
1536912502.53,23380,20.63,74330.3,16.01,8.55,7.59,0,*42
1536912503.73,23381,20.63,74328.3,16.01,8.15,7.09,0,*42
1536912504.93,23382,20.63,74330.3,15.99,8.45,7.47,0,*4C
1536912506.19,23383,20.63,74330.5,15.97,8.55,7.77,0,*41
1536912507.37,23384,20.63,74330.5,15.99,8.23,7.55,0,*49
1536912508.58,23385,20.63,74330.0,15.99,8.27,7.73,0,*48
1536912509.81,23386,20.63,74328.3,15.99,8.37,7.83,0,*45
1536912511.05,23387,20.63,74330.0,15.97,8.29,7.91,0,*46
1536912512.25,23388,20.63,74330.0,15.97,8.45,8.19,0,*4C
1536912513.46,23389,20.63,74328.8,15.99,8.37,8.01,0,*4F
1536912514.65,23390,20.63,74330.0,15.95,7.77,7.33,0,*4E
1536912515.9,23391,20.63,74330.3,15.93,7.95,7.65,0,*46